Flag for Germany Weather past 2 weeks in Cloppenburg, Lower Saxony, Germany

Now
50 °F

Cool.


Feels Like: 48 °F
Forecast: 42 / 52 °F
Wind: 6 mph from Southwest

Location: Meppen-Mil

Current Time: Dec 18, 2014 at 1:56:52 AM

Latest Report: Dec 18, 2014 at 1:20 AM


Visibility: 3 mi

Pressure: 29.74 "Hg

Humidity: 88%

Dew point: 46 °F

Location of CloppenburgLocation

Historic Weather in Cloppenburg — Graph

°F

Cloppenburg temperature yesterday

Maximum temperature yesterday: 48 °F (at 5:20 PM)
Minimum temperature yesterday: 34 °F (at 12:20 AM)
Average temperature yesterday: 42 °F

Past Weeks' High & Low Weather Summary

 TemperatureHumidityPressure
High48 °F (Dec 12, 2:20 PM)100% (Dec 6, 10:20 AM)30.33 "Hg (Dec 6, 10:20 AM)
Low25 °F (Dec 3, 8:20 PM)70% (Dec 10, 1:20 AM)29.24 "Hg (Dec 12, 11:20 AM)
Average38 °F87%29.90 "Hg
* Reported Dec 3 12:20 AM — Dec 18 12:20 AM, Cloppenburg, Weather by CustomWeather, © 2014

Note: Actual official high and low records may vary slightly from our data, if they occured in-between our weather recording intervals... More about our weather records

Advertising

Cloppenburg weather history for previous 24 hours

 ConditionsComfort  
Time TempWeatherWind HumidityBarometerVisibility
12:20 AM
Dec 18
48 °FCool.7 mph94%29.74 "Hg4 mi
11:20 PM
Dec 17
48 °FCool.8 mph94%29.71 "Hg3 mi
10:20 PM48 °FCool.8 mph94%29.71 "Hg3 mi
9:20 PM48 °FCool.8 mph94%29.68 "Hg3 mi
8:20 PM48 °FCool.8 mph94%29.65 "Hg4 mi
7:20 PM48 °FCool.7 mph94%29.62 "Hg6 mi
6:20 PM48 °FCool.8 mph94%29.59 "Hg6 mi
5:20 PM48 °FCool.8 mph94%29.56 "Hg4 mi
4:20 PM46 °FDrizzle. Fog.8 mph93%29.53 "Hg2 mi
3:20 PM45 °FDrizzle. Fog.8 mph100%29.53 "Hg2 mi
2:20 PM43 °FDrizzle. Fog.10 mph93%29.50 "Hg2 mi
1:20 PM43 °FDrizzle. Fog.9 mph93%29.50 "Hg2 mi
12:20 PM41 °FDrizzle. Fog.12 mph93%29.50 "Hg2 mi
11:20 AM41 °FDrizzle. Fog.12 mph87%29.53 "Hg2 mi
10:20 AM39 °FDrizzle. Fog.10 mph93%29.56 "Hg2 mi
9:20 AM39 °FDrizzle. Fog.12 mph93%29.59 "Hg3 mi
8:20 AM39 °FLight rain. Partly cloudy.12 mph93%29.65 "Hg4 mi
7:20 AM39 °FLight rain. Partly cloudy.10 mph87%29.68 "Hg4 mi
6:20 AM39 °FPassing clouds.9 mph87%29.71 "Hg4 mi
5:20 AM37 °FChilly.9 mph93%29.74 "Hg3 mi
4:20 AM37 °FChilly.7 mph93%29.77 "Hg4 mi
3:20 AM37 °FChilly.6 mph87%29.80 "Hg4 mi
2:20 AM36 °FChilly.7 mph93%29.83 "Hg4 mi
1:20 AM36 °FChilly.7 mph93%29.86 "Hg4 mi
Weather by CustomWeather, © 2014

See weather overviewHow to use our weather pages